Location: Brompton
(51.4000°N, 0.5333°E)
Time: 11:50:47
(UTC+00:00)

Cosmos 1898 Rocket - Pass Details

Date: 03 October 2021
Orbit: 752 x 784 km, 74.0° (Epoch: 17 October)

Event Time Altitude Azimuth Distance (km) Brightness Sun altitude
Rises 21:31:47 0° 264° (W) 3,230 7.2 -35.2°
Reaches altitude 10° 21:35:12 10° 287° (WNW) 2,315 6.6 -35.5°
Maximum altitude 21:38:12 15° 322° (NW) 1,989 6.3 -35.8°
Drops below altitude 10° 21:41:13 10° 357° (N) 2,333 6.5 -36.2°
Sets 21:44:43 0° 21° (NNE) 3,271 7.1 -36.5°
